Location: Chevoux
(46.3801°N, 4.9476°E)
Time: 22:37:23
(UTC+00:00)

CZ-3B R/B - Pass Details

Date: 28 January 2021
Orbit: 279 x 17414 km, 54.8° (Epoch: 03 March)

Event Time Altitude Azimuth Distance (km) Brightness Sun altitude
Rises 17:22:21 0° 307° (NW) 2,033 5.3 -7.8°
Reaches altitude 10° 17:23:41 10° 314° (NW) 1,368 4.3 -8.0°
Maximum altitude 17:26:10 54° 34° (NE) 685 2.0 -8.4°
Drops below altitude 10° 17:32:46 10° 112° (ESE) 3,577 5.5 -9.5°
Sets 17:38:42 0° 117° (ESE) 6,275 6.7 -10.5°
